This is the latest recevied weather packets stored in our database for station/object IW2LSY-11. If no packets are shown the sender has not sent any weather packets the latest 10 day(s).
| Time | Temp. | Humidity | Pressure | Rain* | Wind** | Luminosity | Snow |
|---|---|---|---|---|---|---|---|
| 1777941615 | 11.11° C | 74% | 1015.9 hPa | - | - | 410 W/m² | - |
| 1777941012 | 11.11° C | 74% | 1016 hPa | - | - | 411 W/m² | - |
| 1777940412 | 11.67° C | 72% | 1016.1 hPa | - | - | 411 W/m² | - |
| 1777939813 | 11.67° C | 71% | 1016.2 hPa | - | - | 411 W/m² | - |
| 1777939213 | 12.22° C | 68% | 1016.2 hPa | - | - | 412 W/m² | - |
| 1777938614 | 11.67° C | 71% | 1016.2 hPa | - | - | 412 W/m² | - |
| 1777938014 | 11.67° C | 71% | 1016.3 hPa | - | - | 413 W/m² | - |
| 1777937415 | 11.67° C | 73% | 1016.3 hPa | - | - | 413 W/m² | - |
| 1777936815 | 12.22° C | 71% | 1016.5 hPa | - | - | 414 W/m² | - |
| 1777936215 | 11.67° C | 71% | 1016.6 hPa | - | - | 414 W/m² | - |
| 1777935615 | 12.22° C | 70% | 1016.6 hPa | - | - | 415 W/m² | - |
| 1777935015 | 12.78° C | 66% | 1016.6 hPa | - | - | 415 W/m² | - |
| 1777934415 | 12.78° C | 66% | 1016.7 hPa | - | - | 415 W/m² | - |
| 1777933804 | 13.33° C | 64% | 1016.6 hPa | - | - | 415 W/m² | - |
| 1777933205 | 12.78° C | 65% | 1016.6 hPa | - | - | 416 W/m² | - |
| 1777932604 | 13.33° C | 64% | 1016.5 hPa | - | - | 416 W/m² | - |
| 1777932004 | 13.33° C | 63% | 1016.5 hPa | - | - | 417 W/m² | - |
| 1777931405 | 13.33° C | 62% | 1016.6 hPa | - | - | 417 W/m² | - |
| 1777930806 | 14.44° C | 59% | 1016.6 hPa | - | - | 418 W/m² | - |
| 1777930206 | 13.89° C | 60% | 1016.7 hPa | - | - | 418 W/m² | - |
| 1777929606 | 13.89° C | 60% | 1016.7 hPa | - | - | 418 W/m² | - |
| 1777929006 | 14.44° C | 57% | 1016.7 hPa | - | - | 418 W/m² | - |
| 1777928406 | 14.44° C | 55% | 1016.7 hPa | - | - | 419 W/m² | - |
| 1777927807 | 15° C | 54% | 1016.7 hPa | - | - | 420 W/m² | - |
| 1777927208 | 15° C | 54% | 1016.6 hPa | - | - | 420 W/m² | - |
* Rain since midnight (hover to see other rain measurements)
** Current wind speed in m/s (hover to see current wind gust speed)